Reflectivity
-20 -20 -20 -20 -20 -20 -20 -20 -20 -20 -20 -20 -20 -20 -20 -20 -20 -20 -20 -20 -20 -20 -20 -20 -20 -12 -17 -20 -20 -20 -20 -20 -20 -20 -20 -20 -20 -20 -20 -20 -20 -20 -20
-20 -20 -20 -20 -20 -20 -20 -20 -20 -20 -20 -20 -20 -20 -20 -20 -20 -20 -20 -20 -20 -20 -20 -20 -20 -20 -8 -15 -15 -20 -20 -20 -20 -20 -20 -20 -20 -20 -20 -20 -20 -20 -20
-20 -20 -20 -20 -20 -20 -20 -20 -20 -20 -20 -20 -20 -20 -20 -20 -20 -20 -20 -20 -20 -20 -20 -20 -17 1 -11 -1 -20 23 12 5 -20 -20 -20 -20 -20 -20 -20 -20 -20 -20 -20
-20 -20 -20 -20 -20 -20 -20 -20 -20 -20 -20 -20 -20 -20 -20 -20 -20 -20 -9 -4 3 -20 -9 15 7 14 -20 -20 -20 -20 14 19 9 13 5 -20 -20 -20 -20 -20 -20 -20 -20
-20 -20 -20 -20 -20 -20 -20 -20 -20 -20 -20 -18 -20 -20 -20 7 -20 -6 -15 -14 -19 -16 -20 -20 10 13 -4 -20 -20 -20 -20 22 23 26 7 12 -2 -19 -20 -20 -20 -20 -20
-20 -20 -20 -20 -20 -20 -20 -20 -20 -7 -15 -6 2 -11 -20 -20 -20 -20 -20 -20 -20 -20 -20 -20 -20 -20 -20 -20 -20 -20 -20 13 11 4 11 29 6 11 -5 -20 -20 -20 -20
-20 -20 -20 -20 -20 -20 -20 -20 -15 -3 -12 6 -13 -20 -20 -20 -20 -20 -20 -20 -20 -20 -20 -20 -20 -20 -20 -20 -20 -20 -20 -20 -20 -20 1 28 29 20 4 9 -20 -20 -20
-14 -20 -20 -20 -20 -20 -20 -0 -3 1 -1 -20 -12 -3 -20 -20 -20 -20 -20 -20 -20 -20 -20 -20 3 4 -20 -20 -20 -20 -20 -20 -20 -20 -20 -20 -20 22 26 28 1 -12 -3
3 -16 -2 -20 -20 -6 -9 -9 -12 4 5 -16 -18 -5 -7 -20 -20 -20 -20 -20 -20 -20 -20 -20 -15 -20 -20 -20 -20 -20 -20 -20 -20 -20 -20 -20 -20 -20 -20 22 30 25 17
-8 -20 -20 -20 9 -20 -19 -19 -20 -20 -20 -20 -20 -20 -20 -20 10 -15 -20 -7 -20 -20 -20 -20 -18 -20 -20 -20 -20 -20 -20 -20 -20 -20 -20 -19 10 12 10 2 -8 -9 21
30 36 30 -13 -19 -20 -20 -20 -20 -20 -20 -20 -20 -20 -20 -20 -20 -20 -19 -20 -20 -20 -20 -20 -20 -9 -20 -20 -20 -20 -20 -20 -20 -20 -20 -20 0 -20 -16 11 6 -5 -8
27 22 28 30 8 -13 -20 -20 -20 -20 -20 -20 -20 -20 -20 -20 -20 -20 -20 -20 -20 -20 -20 -20 -18 -18 -16 -20 10 -18 7 -20 -20 -20 -20 -20 -20 -20 -20 -19 -4 0 -0
8 23 14 21 15 -10 -20 -20 -19 -20 -20 -20 -20 -20 -20 -20 -20 -20 -15 -18 -20 -20 -20 -20 -20 -20 -20 -20 -11 -14 0 -20 -20 -20 -20 -19 -13 -20 -20 -20 -20 -20 -15
16 15 16 5 -16 -20 -19 -20 -20 -20 -20 -20 -20 -20 -20 -20 -20 -20 -8 6 7 4 -11 -16 -20 -20 -20 12 3 5 -20 -20 -20 -20 -20 3 8 -3 -20 -20 -15 -3 -2
-8 -15 -7 23 -10 -20 -20 -20 -20 -20 -20 -20 -20 -20 -20 -20 -20 -20 -20 4 -20 4 9 -4 13 -20 -3 -15 16 -4 -20 -17 -20 -18 8 10 -20 0 18 16 12 15 11
10 16 20 -7 -20 -20 -20 -20 -20 -20 -20 -20 -20 -20 -20 -20 -20 -20 -20 -20 -19 16 13 -18 -20 -20 -14 15 -2 -2 -16 -2 -7 10 11 11 -4 2 7 14 13 6 -4
-20 -20 -20 -20 -20 -20 -20 -20 -20 -20 -20 -20 -20 -20 -20 -20 -20 -20 -20 -20 -20 -20 -20 -4 -7 16 20 14 -8 -17 -4 -20 -12 4 12 14 6 6 13 13 12 11 -12
-20 -16 -20 -20 -20 -20 -20 -20 -20 -20 -20 -20 -20 -20 -20 -20 -20 -20 -20 -20 -20 -20 15 -3 16 -13 -20 -20 -20 -20 -20 -20 -20 -20 -2 6 11 14 -3 10 15 14 -2
-20 -20 -20 -20 -20 -20 -20 -20 -20 -20 -20 -20 -20 -20 -20 -20 -20 -20 -20 -20 -20 -20 -20 -20 -20 -20 -20 -4 -20 -20 -20 -20 -20 -20 -20 -20 -20 -14 -2 9 -18 3 10
-20 -20 -20 -20 -20 -20 -20 -20 -20 -20 -20 -20 -20 -20 -20 -20 -20 -20 -20 -20 -20 -20 -20 -20 -20 -20 -20 -20 -20 -20 -20 -20 -20 -20 -20 -20 -20 -20 -20 -20 -20 -20 -20
-20 -20 -20 -20 -20 -20 -20 -20 -20 -20 -20 -20 -20 -20 -20 -19 -20 1 -20 -20 -19 -20 -20 -20 -20 -20 -20 -20 -20 -20 -20 -20 -20 -20 -20 -20 -20 -20 -20 -20 -20 -20 -20
-20 -20 -20 -20 -20 -20 -20 -4 4 -20 -20 -20 -20 -20 -15 6 4 -19 -20 9 5 -20 -20 -20 -20 -20 -20 -20 -20 -20 -20 -20 -20 -20 -20 -20 -20 -20 -20 -20 -20 -20 -20
-20 -20 -20 -20 -20 -20 -19 -2 7 -20 -20 -20 -6 1 3 -20 -20 -20 -20 -20 -20 -20 -20 -20 -20 -20 -20 -20 -20 -20 -20 -20 -20 -20 -20 -20 -20 -20 -20 -20 -20 -20 -20
-20 -20 -20 -20 -20 -20 -11 8 9 -20 -20 -20 0 9 -20 -20 -20 -20 -20 -20 -19 -20 -20 -20 -20 -20 -20 -20 -20 -20 -20 -20 -20 -20 -20 -20 -20 -20 -20 -20 -20 -20 -20
-20 -20 -20 -20 -20 -20 -20 1 -6 -20 -20 -5 3 -20 -20 -20 -20 -20 -20 -20 -16 11 16 -2 -20 -20 -20 -20 -20 -20 -20 -20 -20 -20 -20 -20 -20 -20 -20 -20 -20 -20 -20
-20 -20 -20 -20 -20 -20 -10 0 -12 -20 -20 -20 -20 -20 -20 -20 -20 -20 -20 -10 5 -7 -18 -20 -20 -20 -20 -20 -20 -20 -20 -20 -20 -20 -20 -20 -20 -20 -20 -20 -20 -20 -20
Wind_Speed
4 4 4 3 4 3 4 4 4 4 5 5 5 5 5 5 5 3 3 9 10 8 8 7 9 10 10 9 7 7 6 5 5 4 3 2 1 2 3 3 3 4 4
6 5 4 4 4 4 4 4 5 4 4 4 5 5 6 5 5 5 4 4 10 11 10 10 10 11 11 11 11 10 10 9 8 7 6 5 3 2 2 2 2 3 3
6 6 4 4 4 4 5 4 3 3 3 2 4 4 4 5 5 6 5 4 5 10 11 13 12 12 11 11 12 13 14 14 11 9 8 7 6 5 4 4 4 4 4
7 5 4 4 4 4 3 3 2 2 3 3 3 4 4 4 5 5 4 4 4 4 8 10 12 12 12 11 12 13 12 12 13 14 12 10 9 8 8 7 6 6 6
7 5 4 4 4 3 3 3 3 3 3 3 4 4 4 4 4 3 4 4 5 4 4 8 11 8 7 9 10 11 12 11 9 13 15 14 13 12 11 10 10 9 9
7 5 4 5 4 4 4 3 5 4 4 3 3 4 4 4 4 5 6 4 4 5 5 4 4 3 5 7 7 9 11 10 9 7 12 16 16 15 15 14 13 13 12
7 6 4 5 4 4 5 5 3 4 3 3 1 3 3 5 6 5 3 3 4 4 4 4 3 3 1 6 4 4 5 7 9 9 8 9 16 18 17 16 15 15 15
7 7 6 5 5 4 5 4 3 2 3 2 2 2 4 4 3 3 3 3 2 2 4 4 4 5 4 4 6 9 7 7 8 8 8 8 7 10 18 19 18 19 18
6 6 6 5 4 3 2 1 0 2 3 1 1 2 3 4 2 2 2 2 1 1 1 4 4 5 5 4 4 6 8 7 8 8 7 7 7 6 7 9 16 22 22
4 5 6 5 4 3 1 1 2 2 2 3 2 1 3 3 3 3 2 1 2 1 1 0 3 4 5 4 6 8 7 8 8 8 8 8 8 9 7 7 7 9 13
3 4 5 5 5 3 3 3 2 1 2 2 3 1 1 1 3 4 4 4 2 1 1 3 3 4 4 4 4 6 9 8 8 8 9 10 11 12 9 10 9 10 11
2 2 0 2 4 3 2 1 2 2 3 3 3 3 3 3 2 1 2 4 3 1 2 4 4 3 3 4 6 9 10 10 10 10 11 12 13 13 10 9 10 11 11
3 3 1 2 2 2 4 5 3 3 3 3 4 4 3 4 3 3 3 3 3 2 2 3 3 3 3 4 5 6 9 10 10 10 11 12 12 10 9 8 8 8 9
6 9 6 5 3 3 2 2 1 2 4 4 6 4 3 3 3 3 4 4 3 4 3 4 2 3 2 3 5 7 5 9 9 9 9 10 14 15 7 6 5 2 6
3 4 2 5 5 4 2 2 2 3 3 4 4 4 3 2 2 3 3 3 4 3 5 3 2 1 3 2 4 2 4 7 8 8 8 10 12 15 18 14 12 12 10
6 4 3 1 4 4 2 2 2 3 3 3 1 3 3 2 2 2 2 2 2 2 3 1 1 3 3 3 5 3 4 7 7 7 7 8 10 10 12 15 16 16 16
5 7 4 3 3 3 1 1 3 3 4 4 3 4 5 2 3 1 1 0 0 0 2 2 2 3 2 3 4 2 3 3 2 7 8 7 7 10 11 11 11 12 13
4 5 4 4 2 3 1 1 3 3 4 5 5 4 4 1 0 2 1 1 2 2 1 3 2 2 2 1 2 2 2 2 2 3 3 5 5 5 5 8 11 11 11
5 5 4 4 3 2 3 1 1 1 1 2 1 3 1 2 2 0 1 2 2 2 2 2 2 1 1 1 2 3 1 3 2 5 4 5 3 4 5 5 8 9 10
6 5 4 5 4 2 2 1 2 2 3 3 3 3 2 2 2 2 1 1 2 2 1 1 2 1 2 1 2 2 1 3 2 3 5 5 6 5 5 5 8 8 8
4 5 5 4 4 3 2 1 2 4 3 3 3 3 2 3 4 3 1 1 2 2 2 1 2 1 1 2 2 2 2 2 1 2 2 3 3 3 4 4 5 5 6
5 6 5 5 4 3 5 5 5 3 4 4 4 3 3 5 5 6 6 4 1 3 3 2 2 2 2 1 1 2 2 2 1 1 1 2 2 2 2 2 2 4 4
4 4 4 4 4 3 6 7 6 3 4 4 4 4 3 3 5 4 6 8 6 5 2 2 3 2 3 4 4 2 2 2 2 1 1 1 2 2 2 3 3 2 2
5 4 4 5 4 3 6 5 7 4 3 3 3 3 3 3 3 4 2 5 2 3 3 3 4 3 2 4 2 3 4 2 1 0 1 1 2 1 3 3 5 2 1
3 4 3 5 5 4 7 7 6 4 3 3 3 4 5 5 6 6 5 4 2 2 4 6 6 5 6 5 4 3 1 3 1 1 2 2 1 2 1 2 3 4 4
4 3 3 3 7 4 8 8 5 3 4 4 4 4 10 7 7 7 5 4 4 3 3 2 2 3 5 1 3 2 3 2 2 1 1 2 1 2 3 1 2 3 3
Wind_Direction
180 174 202 200 199 194 205 214 216 226 246 238 237 237 241 244 248 238 228 224 223 226 221 226 218 218 219 222 221 212 208 205 199 199 190 177 151 111 91 95 100 100 93
179 188 192 209 216 204 208 213 216 222 239 224 246 234 244 251 248 249 235 233 226 223 222 226 234 246 242 234 226 225 222 220 216 213 210 206 195 190 176 163 157 128 122
185 175 181 198 214 213 206 214 220 204 215 221 251 249 246 252 253 244 234 227 227 229 227 228 228 238 251 258 247 241 235 223 221 221 217 213 209 209 208 194 179 166 158
182 185 181 197 201 192 193 198 190 214 250 251 273 274 272 258 251 247 236 235 223 226 237 247 229 231 235 258 272 277 269 252 229 223 218 214 213 213 214 206 200 197 187
180 178 185 203 191 188 200 202 216 196 225 251 245 251 258 264 271 274 274 251 241 240 229 227 226 243 246 256 271 287 298 305 258 240 226 222 213 215 216 215 210 206 202
182 177 187 196 183 184 207 205 210 209 229 242 262 267 256 267 273 265 257 246 230 237 246 219 186 209 256 256 271 288 292 302 310 276 248 230 221 217 216 215 215 212 212
185 183 191 195 197 202 207 206 201 218 241 227 246 281 292 272 275 265 279 293 277 242 175 152 147 130 100 69 46 6 325 336 4 1 338 279 236 226 222 222 220 218 217
186 179 184 200 203 211 213 199 189 218 242 220 253 312 306 319 289 305 304 295 204 125 138 141 120 131 124 102 83 72 57 26 9 359 347 339 338 264 240 235 227 222 217
177 184 183 186 185 150 180 165 146 238 266 313 3 205 289 255 308 325 2 33 99 57 61 125 127 128 109 100 76 52 50 41 18 2 357 351 345 330 308 285 253 243 225
164 157 142 148 152 120 140 124 98 179 162 257 319 234 239 222 261 292 335 3 31 112 141 349 107 92 94 80 77 75 52 48 41 18 360 349 341 344 1 1 352 326 286
216 176 155 126 126 133 138 138 124 165 179 207 202 284 274 268 244 235 275 291 320 202 161 115 104 83 85 81 79 60 60 53 41 27 4 355 339 334 338 334 317 306 324
222 261 3 167 132 129 124 96 137 180 224 223 216 213 203 211 229 201 253 252 240 8 69 84 101 101 92 86 82 76 69 51 41 24 13 359 343 324 311 308 298 293 284
186 192 161 154 114 181 159 160 210 215 230 220 215 222 223 228 212 216 210 235 239 228 111 63 79 92 93 90 84 74 70 55 42 28 6 360 351 333 306 297 300 302 298
165 168 163 161 151 203 207 162 217 254 244 249 244 230 237 240 230 228 222 220 219 230 181 142 83 92 62 89 93 79 58 65 47 30 10 3 8 15 302 290 295 23 16
53 333 146 122 155 168 194 196 235 255 257 268 249 240 238 259 255 271 270 227 232 213 213 148 153 113 112 101 90 60 63 47 45 31 24 11 13 25 31 56 56 55 50
118 84 353 208 159 159 167 217 251 252 241 256 247 262 260 256 253 253 272 275 256 253 218 112 92 129 122 107 85 65 69 52 25 18 14 13 22 32 44 47 50 52 51
124 134 183 207 198 155 167 250 267 243 245 256 263 248 251 235 241 216 259 84 165 51 199 105 106 111 85 126 107 104 85 68 15 5 350 5 10 16 39 49 50 50 51
141 139 165 192 177 131 85 346 289 259 249 241 247 240 250 234 77 349 305 72 67 29 54 136 110 141 118 97 132 99 73 63 45 356 335 353 355 0 42 46 46 44 46
126 148 168 184 158 136 136 92 342 225 53 49 66 164 252 159 142 205 109 145 110 64 56 139 141 118 110 154 98 53 48 40 15 1 23 27 38 51 40 46 53 50 46
155 169 166 157 149 158 133 110 108 124 108 89 76 70 57 108 158 155 115 109 94 119 122 130 88 115 131 142 107 127 131 48 36 8 349 25 41 32 47 77 70 53 43
158 160 151 167 171 175 188 183 245 196 169 158 124 105 97 104 118 106 111 95 122 135 115 123 109 98 166 143 172 140 143 78 9 42 313 333 355 6 22 55 48 30 11
154 160 181 193 203 227 190 207 227 224 180 164 137 111 80 77 84 106 108 92 168 186 171 159 156 162 175 140 116 139 111 101 230 344 10 317 10 358 352 314 327 11 20
162 186 200 201 218 214 216 229 218 186 166 157 150 157 135 74 78 46 94 67 53 72 93 156 151 181 163 179 142 133 145 145 192 266 128 305 12 347 318 329 313 21 54
192 192 205 208 197 216 215 196 151 125 123 126 140 172 149 162 158 143 121 104 93 69 50 69 108 139 116 140 151 168 153 145 81 285 103 121 5 292 326 314 281 152 65
198 208 197 199 190 214 189 189 144 136 146 161 187 187 177 179 201 172 156 151 176 95 102 109 119 115 130 149 159 105 98 88 268 222 17 98 5 304 321 314 322 359 4
206 198 221 191 202 190 208 205 165 152 170 178 189 218 209 187 196 176 171 158 188 198 146 85 57 64 60 19 155 176 143 138 179 357 256 101 11 13 355 302 323 0 358